User: anonymous   Login
Location: Unspecified
(0.0000°N, 0.0000°E)
Time: 11:49:03
(UTC+00:00)
Language:

Vela 4A - Orbit

View from above orbital plane
View from above orbital plane
View from above satellite
View from above satellite

Ground track
Ground track

The orbit data is extracted from the following two-line orbital elements,

1 02765U 67040A   17062.35934056 -.00001007  00000-0  00000+0 0  9996
2 02765   8.4258  28.4113 4967277 177.4639 355.5279  0.21487481 39101
Epoch (UTC): 03 March 2017 08:37:27
Eccentricity: 0.4967277
inclination: 8.4258°
perigee height: 52879 km
apogee height: 169853 km
right ascension of ascending node: 28.4113°
argument of perigee: 177.4639°
revolutions per day: 0.21487481
mean anomaly at epoch: 355.5279°
orbit number at epoch: 3910

The dashed part of the orbit path shows where the satellite is in the earth's shadow,  

DLR